Location: Theydon Bois
(51.6750°N, 0.1050°E)
Time: 08:14:38
(UTC+01:00)

Daily predictions for brighter satellites

Satellite Brightness Start Highest point End
(mag) Time Altitude Azimuth Time Altitude Azimuth Time Altitude Azimuth
Cosmos 1821 Rocket 4.1 19:44:57 10° S 19:51:18 75° E 19:57:39 10° NNE
Cosmos 405 3.8 19:55:48 10° SSW 19:59:17 57° WNW 20:02:46 10° N
Cosmos 990 Rocket 4.0 19:54:36 10° S 19:59:47 64° ESE 20:04:59 10° NNE
Cosmos 2084 Rocket 3.9 19:55:59 10° WSW 19:59:55 57° NW 20:03:43 10° NE
Lacrosse 5 2.4 19:56:45 10° SSW 20:01:26 39° SE 20:06:07 10° ENE
Cosmos 2150 Rocket 4.0 19:57:55 10° SSW 20:03:03 84° ESE 20:08:16 10° NNE
Cosmos 1076 Rocket 3.8 19:59:12 10° N 20:03:20 47° ENE 20:07:26 10° SSE
H-2A R/B 2.8 20:00:40 10° SSE 20:04:35 83° ENE 20:08:34 10° NNW
Helios 1B rocket 3.6 20:01:28 10° NE 20:04:46 23° E 20:08:04 10° SE
CZ-4B DEB 3.8 20:02:35 10° SE 20:05:14 26° ENE 20:07:53 10° N
Cosmos 1812 Rocket 3.6 20:02:19 10° S 20:06:45 89° E 20:11:09 10° N
Cosmos 1898 Rocket 3.9 20:02:36 10° SSW 20:07:54 74° WNW 20:13:12 10° NNE
Envisat 3.6 20:04:00 10° SE 20:08:40 38° ENE 20:13:22 10° N
Cosmos 1605 Rocket 4.1 20:03:15 10° S 20:09:24 59° E 20:15:40 10° NNE
Cosmos 482 Debris 2.8 20:08:23 10° W 20:10:19 52° SSW 20:11:42 14° ESE
Cosmos 1758 3.8 20:08:24 10° SSE 20:12:04 37° E 20:15:47 10° NNE
H-2A R/B 4.1 20:11:39 10° ENE 20:13:32 12° NE 20:15:24 10° NNE
SS 2 4.5 20:11:00 10° NW 20:13:54 71° NE 20:16:42 11° SE
Cosmos 1844 3.8 20:08:23 10° SSW 20:14:11 90° WNW 20:20:03 10° NNE
Cosmos 1048 Rocket 3.9 20:09:19 10° NNW 20:14:28 72° ENE 20:19:34 10° SSE
Cosmos 1125 Rocket 4.1 20:11:52 10° SSE 20:16:31 34° ESE 20:21:13 10° NE
Cosmos 2123 Rocket 4.3 20:10:56 10° NNW 20:17:17 77° W 20:23:33 10° S
Cosmos 1766 Rocket 3.8 20:13:14 10° N 20:17:37 49° ENE 20:21:58 10° SSE
Lacrosse 4 Rocket 1.8 20:14:00 10° SW 20:18:01 64° NW 20:22:05 10° NNE
GP-B 3.6 20:14:28 10° SSE 20:18:36 40° E 20:22:46 10° NNE
Cosmos 1953 2.7 20:16:23 10° SSE 20:20:12 41° E 20:24:03 10° NNE
Helios 1A 3.0 20:18:59 10° SSE 20:23:07 67° ENE 20:27:19 10° N
Resurs 01 Rocket 2.1 20:19:54 10° S 20:24:17 65° WSW 20:28:43 10° NNW
Cosmos 1939 Rocket 3.5 20:22:02 10° SE 20:25:54 39° ENE 20:29:48 10° N
ERS-1 Rocket 3.8 20:23:22 12° ESE 20:27:30 33° ENE 20:32:00 10° N
Cosmos 1271 Rocket 3.7 20:27:44 10° SSE 20:31:09 27° E 20:34:35 10° NNE
SeaSat 1 4.1 20:27:34 10° S 20:32:02 34° WSW 20:36:32 10° NW
Cosmos 1766 3.8 20:28:54 10° SSW 20:32:44 62° WNW 20:36:38 10° N
Meteor 1-21 Rocket 4.3 20:28:02 10° NNW 20:33:53 85° ENE 20:39:47 10° SSE
CZ-4B DEB 4.5 20:30:43 10° SSE 20:34:17 69° ENE 20:37:52 10° N
Cosmos-2242 3.6 20:31:00 10° SSE 20:34:51 35° E 20:38:45 10° NNE
USA 186 1.1 20:34:02 10° S 20:36:16 68° WSW 20:38:29 10° NNW
Cosmos 1937 Rocket 4.2 20:31:14 10° SW 20:36:27 60° WNW 20:41:44 10° NNE
SJ-11-01 4.4 20:32:02 10° SSE 20:36:41 57° ENE 20:41:19 10° N
Lacrosse 5 rocket 1.2 20:32:48 10° WNW 20:36:50 75° SSW 20:39:32 18° SE
Cosmos 1184 Rocket 3.8 20:37:19 10° N 20:40:24 30° ENE 20:41:46 22° ESE
Cosmos 1674 2.6 20:38:52 10° N 20:42:39 81° E 20:46:27 10° SSE
Timation 2 Rocket 4.0 20:37:41 10° NNW 20:44:09 83° WSW 20:50:16 10° SSE
Cosmos 2061 Rocket 4.4 20:39:18 10° SSE 20:45:18 44° E 20:51:21 10° NNE
Cosmos 2251 Rocket 3.9 20:43:29 10° NNW 20:48:40 49° ENE 20:52:07 20° SE
Cosmos 1844 Rocket 3.9 20:43:18 10° WSW 20:48:43 45° NW 20:54:08 10° NNE
Cosmos 1743 Rocket 3.8 20:44:50 10° N 20:49:10 50° ENE 20:52:17 18° SE
Cosmos 1500 Rocket 4.1 20:46:53 10° N 20:50:59 39° ENE 20:53:09 23° SE
USA 215 4.0 20:48:02 10° ENE 20:53:35 29° SE 20:59:06 10° S
SAR-Lupe-4 4.4 20:50:08 10° S 20:53:38 52° WSW 20:57:10 10° NNW
Timation 1 Rocket 4.3 20:48:17 10° SSW 20:54:14 66° ESE 21:00:13 10° NE
Cosmos 1833 Rocket 3.0 20:49:03 10° NW 20:54:38 66° WSW 21:00:12 10° SSE
YAOGAN 6 3.1 20:53:05 26° ESE 20:54:43 42° ENE 20:58:16 10° N
H-2A R/B 3.9 20:55:08 13° ENE 20:55:45 13° NE 20:57:48 10° NNE
Cosmos 1356 Rocket 3.8 20:53:37 10° N 20:57:36 43° ENE 20:59:20 27° SE
Meteor 1-29 2.9 20:58:18 10° NNE 21:01:46 66° ESE 21:05:14 10° S
Cosmos 1459 Rocket 4.0 20:57:21 10° S 21:03:28 62° E 21:09:33 10° NNE
Cosmos 1805 4.1 21:01:16 10° SSW 21:05:05 52° WNW 21:08:56 10° N
Cosmos 2278 Rocket 2.6 20:59:32 10° SW 21:05:12 68° WNW 21:10:54 10° NNE
COSMOS 2487 4.0 21:04:39 10° NW 21:07:58 35° WSW 21:11:15 10° S
Cosmos 2173 Rocket 3.9 21:02:50 10° S 21:08:57 66° E 21:15:12 10° NNE
Cosmos 1408 Rocket 4.3 21:06:18 10° NNW 21:10:41 55° W 21:15:03 10° S
BREEZE-M DEB 4.1 21:09:36 10° W 21:13:25 63° S 21:13:46 57° SE
Cosmos 372 Rocket 3.8 21:09:56 10° SSW 21:15:02 75° ESE 21:20:13 10° NNE
Cosmos 1626 3.5 21:12:42 10° NNE 21:15:31 24° ENE 21:15:31 24° ENE
ATLAS 5 CENTAUR R/B 2.1 21:12:39 10° SSW 21:17:08 42° ESE 21:22:02 10° NE
Meteor 1-4 Rocket 3.7 21:16:13 10° SW 21:19:32 43° WNW 21:22:54 10° N
Cosmos 2297 3.6 21:15:03 10° SSW 21:20:46 84° ESE 21:26:34 10° NNE
Cosmos 1470 2.7 21:16:51 10° S 21:20:49 87° W 21:24:50 10° N
Cosmos 1340 Rocket 3.4 21:18:13 10° NNW 21:22:12 57° W 21:25:08 17° S
Cosmos 2344 4.0 21:18:33 10° SW 21:26:21 73° NW 21:35:56 10° NE
Meteor 1-11 4.1 21:21:08 10° N 21:26:44 73° ENE 21:29:38 29° SSE
Cosmos 1867 3.5 21:21:28 10° SSW 21:26:55 74° SE 21:32:24 10° NE
Cosmos 2058 3.0 21:24:10 10° N 21:28:17 53° ENE 21:28:53 48° ESE
Cosmos 1842 Rocket 3.6 21:27:03 38° SSE 21:28:26 56° E 21:32:46 10° NNE
USA 267 3.2 21:26:09 29° ESE 21:29:46 84° NNE 21:36:21 10° WNW
Cosmos 2082 Rocket 3.6 21:24:41 10° NW 21:29:47 35° WSW 21:34:51 10° S
Cosmos 1733 3.4 21:27:04 10° SSW 21:30:56 71° WNW 21:34:50 10° N
Cosmos 2151 2.9 21:28:03 10° N 21:32:20 72° ENE 21:33:23 49° SE
USA 245 4.5 21:31:55 35° SE 21:34:21 62° ENE 21:40:36 10° N
Cosmos 494 Rocket 4.0 21:29:41 10° NNW 21:34:50 79° WSW 21:37:10 33° SSE
Meteor 2-17 Rocket 4.3 21:29:07 10° S 21:35:14 73° E 21:41:22 10° NNE
BREEZE-M DEB (TANK) 3.5 21:33:37 10° W 21:35:12 28° SW 21:35:12 28° SW
CZ-3B DEB 2.0 21:28:40 10° WSW 21:36:52 80° NNW 21:38:51 32° ENE
Cosmos 389 Rocket 4.1 21:40:26 24° NE 21:40:26 24° NE 21:42:05 10° NNE
Helios 1B rocket 3.6 21:36:20 10° N 21:40:18 44° WNW 21:44:13 10° SW
Cosmos 2016 Rocket 3.9 21:34:27 10° S 21:40:40 81° E 21:46:50 10° NNE
YAOGAN 11 4.1 21:40:00 43° SSE 21:41:31 90° E 21:46:06 10° NNW
Meteor 1-16 Rocket 4.2 21:38:44 18° S 21:43:13 71° E 21:49:09 10° NNE
Lacrosse 5 2.1 21:39:10 10° WSW 21:44:14 71° NNW 21:47:43 20° ENE
Envisat 4.3 21:43:02 10° SSW 21:47:43 37° W 21:52:26 10° NNW
MetOp-A 4.1 21:46:00 36° SSE 21:48:19 85° WSW 21:53:43 10° NNW
Cosmos 1725 Rocket 3.9 21:45:20 28° SSE 21:48:40 67° E 21:54:49 10° NNE
ARGOS 3.1 21:47:01 45° SE 21:48:41 74° ENE 21:54:03 10° NNW
SPOT 5 3.0 21:47:19 43° SSE 21:49:11 83° ENE 21:54:32 10° NNW
SL-14 R/B 3.8 21:46:52 10° NNW 21:50:40 55° W 21:51:36 42° SW
H-2A R/B 2.3 21:50:58 47° ESE 21:51:53 52° ENE 21:57:01 10° N
Landsat 7 4.3 21:52:23 43° ENE 21:52:32 43° ENE 21:57:01 10° N
Meteor 2-1 Rocket 4.3 21:51:49 48° SE 21:52:44 53° E 21:58:13 10° NNE
Lacrosse 4 Rocket 4.3 21:55:01 10° WNW 21:57:32 16° NNW 22:00:06 10° N
Tsikada Rocket 4.0 21:53:41 10° NNW 21:59:55 82° W 22:02:51 34° S
Sich 1 3.7 22:00:36 10° N 22:04:10 43° NE 22:04:10 43° NE
Cosmos 1666 Rocket 4.2 22:00:49 10° N 22:04:17 43° NE 22:04:17 43° NE
ERS-1 Rocket 4.0 22:03:22 22° SSW 22:06:12 43° W 22:11:01 10° NNW
Terra 2.4 22:08:08 42° NE 22:08:08 42° NE 22:12:18 10° N
Cosmos 1633 Rocket 3.9 22:04:51 10° N 22:08:17 40° NE 22:08:17 40° NE
Cosmos 2297 Rocket 4.4 22:07:06 10° N 22:10:21 15° NNE 22:13:06 11° NE
Lacrosse 5 rocket 3.5 22:13:06 10° W 22:15:15 15° WSW 22:15:15 15° WSW
Cosmos 2346 Rocket 4.4 22:10:07 10° N 22:16:22 86° ENE 22:17:53 55° SSE
Cosmos 1833 4.2 22:15:44 10° NNW 22:21:19 62° NE 22:21:42 60° ENE
Cosmos 1703 4.0 22:18:55 10° NNW 22:22:13 53° NW 22:22:13 53° NW
Cosmos 2369 Rocket 3.2 22:29:46 32° NE 22:29:46 32° NE 22:32:56 10° NE
Nimbus 7 Rocket 4.2 22:21:40 10° NNE 22:27:35 78° ESE 22:28:16 68° SSE
Cosmos 2221 3.2 22:30:44 50° N 22:30:44 50° N 22:34:02 10° N
H-2A R/B 2.7 22:32:15 49° NNW 22:32:15 49° NNW 22:35:19 10° NNW
Cosmos 1805 Rocket 4.0 22:27:58 10° NNW 22:31:53 61° WNW 22:31:53 61° WNW
SL-08 RB Rocket 4.1 22:32:41 57° WSW 22:32:46 58° W 22:37:24 10° NNW
SPOT 1/Viking Rocket 3.8 22:35:10 57° SW 22:35:43 61° WSW 22:40:55 10° NNW
Cosmos 2227 Rocket 3.9 22:32:36 10° NNW 22:36:55 21° NE 22:38:11 20° NE
USA 215 3.1 22:30:43 10° ENE 22:37:18 77° SSE 22:43:50 10° SW
Cosmos 407 Rocket 4.0 22:45:35 10° NNW 22:50:06 52° NNE 22:50:06 52° NNE
Cosmos 1626 4.1 22:47:52 10° NNW 22:50:12 27° WNW 22:50:12 27° WNW
Cosmos 2233 Rocket 4.1 22:54:17 54° SW 22:55:33 68° WNW 23:01:42 10° N
Cosmos 1943 Rocket 3.8 23:03:29 23° NE 23:03:29 23° NE 23:05:39 10° NE
Nadezhda 4 Rocket 4.3 22:54:34 10° N 22:59:58 53° NE 22:59:58 53° NE
ATLAS 5 CENTAUR R/B 2.8 22:57:01 10° WSW 23:01:48 48° NNW 23:07:05 10° NE
CZ-4C R/B 3.9 23:15:58 24° NE 23:15:58 24° NE 23:18:26 10° NE
USA 267 3.8 23:13:29 42° SW 23:13:29 42° SW 23:19:22 10° WNW
SL-19 R/B 4.5 23:07:58 10° NNE 23:13:48 80° NNE 23:13:48 80° NNE
Cosmos 2219 3.6 23:09:51 10° NNW 23:14:35 57° N 23:14:35 57° N
Lacrosse 5 3.0 23:22:52 10° WNW 23:26:56 42° NNW 23:26:56 42° NNW
H-2A R/B 3.6 23:31:36 29° W 23:31:36 29° W 23:36:08 10° NNW
Cosmos 1464 Rocket 4.2 23:41:27 65° NW 23:41:27 65° NW 23:47:12 10° N
Terra 3.7 23:47:00 26° WNW 23:47:00 26° WNW 23:49:53 10° NNW
CZ-3B DEB 4.0 23:44:22 10° WNW 23:45:52 17° WNW 23:45:52 17° WNW
